Watsonville, CA

9:49 AM PDT on October 14, 2019 (GMT -0700)
Watsonville Municipal

Weather History for KWVI - August, 2019

Change the Weather History Date:

Monday, August 19, 2019

  Actual Average Record
Temperature  
Mean Temperature 63 °F 64 °F  
Max Temperature 67 °F 75 °F 79 °F (2007)
Min Temperature 59 °F 53 °F 50 °F (2001)
Degree Days  
Heating Degree Days 2    
Month to date heating degree days 11  
Since 1 June heating degree days 149  
Since 1 July heating degree days 58  
Cooling Degree Days 0    
Month to date cooling degree days 32  
Year to date cooling degree days 86  
Since 1 June cooling degree days 86  
Growing Degree Days 12 (Base 50)    
Moisture  
Dew Point 56 °F    
Average Humidity 80    
Maximum Humidity 87    
Minimum Humidity 73    
Precipitation  
Precipitation 0.01 in - 0.41 in (1976)
Month to date precipitation 0.02  
Year to date precipitation 22.78  
Sea Level Pressure  
Sea Level Pressure 29.98 in    
Wind  
Wind Speed 4 mph (SSW)    
Max Wind Speed 14 mph    
Max Gust Speed 16 mph    
Visibility 9 miles    
Events Rain    
T = Trace of Precipitation, MM = Missing Value Source: NWS Daily Summary

Daily Weather History Graph

Daily Weather History Graph

Search for Another Location

Airport or City:

Astronomy

Aug. 19, 2019 Rise Set
Actual Time 6:27 AM PDT 7:53 PM PDT
Civil Twilight 5:59 AM PDT 8:20 PM PDT
Nautical Twilight 5:27 AM PDT 8:53 PM PDT
Astronomical Twilight 4:52 AM PDT 9:27 PM PDT
Moon 10:22 PM PDT (8/19) 10:08 AM PDT (8/19)
Length of Visible Light 14h 20m
Length of Day
13h 26m
Waning Gibbous, 84% of the Moon is Illuminated
Aug 19
Waning Gibbous
Aug 23
Last Quarter
Aug 30
New
Sep 5
First Quarter
Sep 13
Full

Hourly Weather History & Observations

Time (PDT) Temp. Dew Point Humidity Pressure Visibility Wind Dir Wind Speed Gust Speed Precip Events Conditions
12:53 AM 60.1 °F 55.9 °F 86% 29.96 in 10.0 mi Variable 3.5 mph - N/A   Overcast
1:40 AM 59.0 °F 55.0 °F 87% 29.96 in 10.0 mi Calm Calm - N/A   Overcast
1:53 AM 59.0 °F 55.0 °F 87% 29.96 in 10.0 mi WSW 3.5 mph - N/A   Overcast
2:53 AM 59.0 °F 55.9 °F 90% 29.96 in 10.0 mi SW 3.5 mph - N/A   Overcast
3:36 AM 59.0 °F 55.9 °F 90% 29.97 in 7.0 mi WSW 3.5 mph - 0.00 in Rain Light Rain
3:53 AM 59.0 °F 55.9 °F 90% 29.96 in 7.0 mi Calm Calm - 0.00 in   Overcast
4:26 AM 59.0 °F 55.9 °F 90% 29.96 in 4.0 mi Calm Calm - 0.01 in Rain Light Rain
4:36 AM 59.0 °F 57.0 °F 93% 29.96 in 4.0 mi SW 4.6 mph - 0.01 in   Overcast
4:53 AM 59.0 °F 55.9 °F 90% 29.96 in 7.0 mi Calm Calm - 0.01 in   Overcast
5:05 AM 59.0 °F 57.0 °F 93% 29.96 in 7.0 mi Calm Calm - N/A   Overcast
5:29 AM 59.0 °F 55.9 °F 90% 29.96 in 5.0 mi Calm Calm - N/A   Overcast
5:53 AM 59.0 °F 55.9 °F 90% 29.96 in 5.0 mi Calm Calm - 0.00 in Rain Light Rain
6:53 AM 59.0 °F 55.9 °F 90% 29.97 in 10.0 mi South 3.5 mph - 0.00 in   Overcast
7:53 AM 59.0 °F 55.0 °F 87% 29.99 in 10.0 mi SSE 3.5 mph - N/A   Overcast
8:53 AM 59.0 °F 55.0 °F 87% 29.99 in 10.0 mi South 3.5 mph - N/A   Overcast
9:53 AM 60.1 °F 55.9 °F 86% 30.01 in 10.0 mi Calm Calm - N/A   Overcast
10:53 AM 61.0 °F 55.0 °F 81% 30.02 in 10.0 mi Calm Calm - N/A   Overcast
11:10 AM 61.0 °F 55.0 °F 81% 30.02 in 10.0 mi Calm Calm - N/A   Overcast
11:53 AM 63.0 °F 55.9 °F 78% 30.02 in 10.0 mi Variable 3.5 mph - N/A   Overcast
12:53 PM 64.0 °F 55.9 °F 75% 30.02 in 10.0 mi WSW 6.9 mph - N/A   Overcast
1:53 PM 64.9 °F 55.9 °F 73% 30.02 in 10.0 mi SW 5.8 mph - N/A   Overcast
2:53 PM 66.0 °F 57.0 °F 73% 30.01 in 10.0 mi WSW 10.4 mph - N/A   Overcast
3:20 PM 66.0 °F 57.0 °F 73% 30.01 in 10.0 mi West 9.2 mph - N/A   Overcast
3:28 PM 66.0 °F 57.0 °F 73% 30.01 in 10.0 mi West 6.9 mph - N/A   Overcast
3:53 PM 66.0 °F 57.0 °F 73% 30.01 in 10.0 mi Variable 6.9 mph - N/A   Overcast
4:53 PM 64.9 °F 57.0 °F 75% 29.99 in 10.0 mi WSW 6.9 mph - N/A   Overcast
5:43 PM 66.0 °F 57.0 °F 73% 29.98 in 10.0 mi Variable 4.6 mph - N/A   Overcast
5:53 PM 66.0 °F 57.0 °F 73% 29.98 in 10.0 mi WSW 3.5 mph - N/A   Overcast
6:21 PM 66.0 °F 57.0 °F 73% 29.98 in 10.0 mi SSW 4.6 mph - N/A   Partly Cloudy
6:53 PM 64.9 °F 57.0 °F 75% 29.97 in 10.0 mi SSE 4.6 mph - N/A   Clear
7:53 PM 62.1 °F 55.9 °F 80% 29.97 in 10.0 mi SE 6.9 mph - N/A   Partly Cloudy
8:13 PM 62.1 °F 57.0 °F 84% 29.97 in 10.0 mi ESE 6.9 mph - N/A   Mostly Cloudy
8:53 PM 62.1 °F 57.0 °F 84% 29.98 in 10.0 mi East 5.8 mph - N/A   Overcast
9:53 PM 62.1 °F 57.0 °F 84% 29.99 in 10.0 mi ENE 3.5 mph - N/A   Overcast
10:53 PM 62.1 °F 55.9 °F 80% 29.99 in 10.0 mi ENE 4.6 mph - N/A   Overcast
11:53 PM 61.0 °F 55.9 °F 83% 29.99 in 10.0 mi East 3.5 mph - N/A   Overcast